Weather History for Rogers City, MI

Change the Weather History Date:

Monday, March 25, 2013

  Actual Average (KAPN) Record (KAPN)
Temperature  
Mean Temperature 34 °F 32 °F  
Max Temperature 38 °F 42 °F 69 °F (1986)
Min Temperature 30 °F 23 °F -14 °F (1960)
Degree Days  
Heating Degree Days 31 33  
Month to date heating degree days 936  
Since 1 July heating degree days 6668  
Cooling Degree Days 0 0  
Month to date cooling degree days 0  
Year to date cooling degree days 0  
Moisture  
Dew Point 27 °F    
Average Humidity 74    
Maximum Humidity 82    
Minimum Humidity 60    
Precipitation  
Precipitation 0.00 in 0.06 in 1.15 in (1947)
Month to date precipitation 1.47  
Year to date precipitation 4.45  
Snow  
Snow 0.00 in 0.30 in 14.00 in (1947)
Month to date snowfall 10.4  
Since 1 July snowfall 76.5  
Snow Depth -    
Sea Level Pressure  
Sea Level Pressure 29.86 in    
Wind  
Wind Speed 12 mph (North)    
Max Wind Speed 16 mph    
Max Gust Speed 22 mph    
Visibility 10 miles    
Events      
T = Trace of Precipitation, MM = Missing Value Source: NWS Daily Summary

Daily Weather History Graph

Daily Weather History Graph

Search for Another Location

Airport:

Trip Planner

Search our weather history database for the weather conditions in past years. The results will help you decide how hot, cold, wet, or windy it might be!

Date:

Astronomy

Mar. 25, 2013 Rise Set
Actual Time 7:28 AM EDT 7:54 PM EDT
Civil Twilight 6:58 AM EDT 8:24 PM EDT
Nautical Twilight 6:23 AM EDT 8:59 PM EDT
Astronomical Twilight 5:47 AM EDT 9:35 PM EDT
Moon 6:22 PM EDT (3/25) 6:15 AM EDT (3/25)
Length of Visible Light 13h 25m
Length of Day
12h 26m
Waxing Gibbous, 96% of the Moon is Illuminated
Mar 25
Waxing Gibbous
Mar 27
Full
Apr 3
Last Quarter
Apr 10
New
Apr 18
First Quarter

Hourly Weather History & Observations

Time (EDT) Temp. Windchill Dew Point Humidity Pressure Visibility Wind Dir Wind Speed Gust Speed Precip Events Conditions
12:15 AM 32.9 °F 24.1 °F 27.5 °F 81% 29.85 in 10.0 mi NE 11.5 mph 17.3 mph N/A   Overcast
12:35 AM 32.4 °F 22.5 °F 25.2 °F 75% 29.85 in 10.0 mi NE 13.8 mph 21.9 mph N/A   Overcast
12:55 AM 32.2 °F 21.4 °F 25.7 °F 77% 29.86 in 10.0 mi ENE 16.1 mph 20.7 mph N/A   Overcast
1:15 AM 32.0 °F 22.5 °F 25.7 °F 78% 29.86 in 10.0 mi ENE 12.7 mph 19.6 mph N/A   Overcast
1:35 AM 32.0 °F 23.0 °F 26.2 °F 79% 29.86 in 10.0 mi ENE 11.5 mph 17.3 mph N/A   Overcast
1:55 AM 32.0 °F 22.1 °F 26.2 °F 79% 29.85 in 10.0 mi ENE 13.8 mph 17.3 mph N/A   Overcast
2:15 AM 32.0 °F 21.2 °F 25.3 °F 76% 29.85 in 10.0 mi ENE 16.1 mph 19.6 mph N/A   Overcast
2:34 AM 32.0 °F 22.1 °F 25.5 °F 77% 29.85 in 10.0 mi NE 13.8 mph 19.6 mph N/A   Overcast
2:55 AM 32.0 °F 22.5 °F 25.7 °F 78% 29.85 in 10.0 mi NE 12.7 mph 19.6 mph N/A   Overcast
3:15 AM 32.0 °F 23.0 °F 25.0 °F 75% 29.85 in 10.0 mi NE 11.5 mph 18.4 mph N/A   Overcast
3:55 AM 32.0 °F 22.1 °F 25.3 °F 76% 29.84 in 10.0 mi NE 13.8 mph - N/A   Overcast
4:15 AM 32.0 °F 22.1 °F 24.8 °F 75% 29.84 in 10.0 mi NE 13.8 mph 19.6 mph N/A   Overcast
4:35 AM 32.0 °F 22.1 °F 24.8 °F 75% 29.83 in 10.0 mi NE 13.8 mph 20.7 mph N/A   Overcast
4:55 AM 32.0 °F 22.5 °F 24.3 °F 73% 29.83 in 10.0 mi NE 12.7 mph 19.6 mph N/A   Overcast
5:15 AM 32.0 °F 22.1 °F 24.6 °F 74% 29.83 in 10.0 mi NE 13.8 mph 20.7 mph N/A   Overcast
5:35 AM 31.6 °F 22.6 °F 25.2 °F 77% 29.82 in 10.0 mi NE 11.5 mph 18.4 mph N/A   Overcast
5:55 AM 31.8 °F 22.8 °F 25.3 °F 77% 29.82 in 10.0 mi NE 11.5 mph 18.4 mph N/A   Overcast
6:15 AM 31.6 °F 23.1 °F 25.7 °F 79% 29.82 in 10.0 mi NE 10.4 mph 16.1 mph N/A   Overcast
6:35 AM 31.6 °F 22.6 °F 25.7 °F 79% 29.82 in 10.0 mi NE 11.5 mph 16.1 mph N/A   Overcast
6:55 AM 31.6 °F 23.1 °F 25.7 °F 79% 29.82 in 10.0 mi NE 10.4 mph 19.6 mph N/A   Overcast
7:15 AM 31.6 °F 22.1 °F 25.5 °F 78% 29.82 in 10.0 mi NNE 12.7 mph 18.4 mph N/A   Overcast
7:35 AM 31.1 °F 22.4 °F 25.5 °F 80% 29.82 in 10.0 mi NNE 10.4 mph 18.4 mph N/A   Overcast
7:55 AM 30.9 °F 21.2 °F 25.3 °F 80% 29.82 in 10.0 mi NNE 12.7 mph 19.6 mph N/A   Overcast
8:15 AM 31.1 °F 21.9 °F 25.5 °F 80% 29.82 in 10.0 mi NNE 11.5 mph 17.3 mph N/A   Overcast
8:35 AM 31.3 °F 21.6 °F 25.7 °F 80% 29.82 in 10.0 mi NNE 12.7 mph 18.4 mph N/A   Overcast
8:55 AM 31.5 °F 21.8 °F 25.9 °F 80% 29.83 in 10.0 mi NNE 12.7 mph 19.6 mph N/A   Overcast
9:15 AM 31.8 °F 23.3 °F 26.4 °F 80% 29.83 in 10.0 mi NNE 10.4 mph 20.7 mph N/A   Overcast
9:35 AM 31.8 °F 22.3 °F 26.2 °F 80% 29.83 in 10.0 mi NNE 12.7 mph 17.3 mph N/A   Overcast
9:55 AM 32.0 °F 23.0 °F 26.2 °F 79% 29.83 in 10.0 mi NNE 11.5 mph 16.1 mph N/A   Overcast
10:15 AM 32.0 °F 23.0 °F 26.4 °F 80% 29.84 in 10.0 mi NNE 11.5 mph 18.4 mph N/A   Overcast
10:35 AM 32.0 °F 21.6 °F 26.6 °F 80% 29.84 in 10.0 mi NNE 15.0 mph 18.4 mph N/A   Overcast
10:55 AM 32.0 °F 22.1 °F 26.4 °F 80% 29.84 in 10.0 mi NNE 13.8 mph 19.6 mph N/A   Overcast
11:14 AM 32.4 °F 23.5 °F 26.8 °F 80% 29.84 in 10.0 mi NNE 11.5 mph 19.6 mph N/A   Overcast
11:35 AM 32.7 °F 23.9 °F 27.1 °F 80% 29.85 in 10.0 mi NNE 11.5 mph 19.6 mph N/A   Overcast
11:54 AM 32.9 °F 24.7 °F 27.5 °F 81% 29.85 in 10.0 mi NNE 10.4 mph 18.4 mph N/A   Overcast
12:15 PM 33.6 °F 28.4 °F 28.0 °F 80% 29.85 in 10.0 mi NNE 5.8 mph - N/A   Overcast
12:35 PM 34.0 °F 27.2 °F 28.0 °F 79% 29.85 in 10.0 mi North 8.1 mph - N/A   Overcast
12:55 PM 34.7 °F 28.1 °F 28.0 °F 77% 29.85 in 10.0 mi North 8.1 mph - N/A   Overcast
1:15 PM 34.7 °F 27.5 °F 28.4 °F 78% 29.85 in 10.0 mi North 9.2 mph - N/A   Overcast
1:35 PM 35.6 °F 29.9 °F 28.8 °F 76% 29.85 in 10.0 mi North 6.9 mph - N/A   Overcast
1:55 PM 36.1 °F 29.9 °F 28.8 °F 75% 29.85 in 10.0 mi North 8.1 mph - N/A   Overcast
2:15 PM 36.0 °F 29.6 °F 28.6 °F 75% 29.85 in 10.0 mi North 8.1 mph - N/A   Overcast
2:35 PM 36.1 °F 28.7 °F 28.2 °F 73% 29.85 in 10.0 mi North 10.4 mph - N/A   Overcast
2:55 PM 36.1 °F 29.9 °F 27.5 °F 71% 29.85 in 10.0 mi North 8.1 mph - N/A   Overcast
3:15 PM 37.0 °F 30.4 °F 28.2 °F 70% 29.85 in 10.0 mi NNW 9.2 mph - N/A   Overcast
3:35 PM 37.6 °F 31.0 °F 27.5 °F 67% 29.85 in 10.0 mi NW 9.2 mph - N/A   Overcast
3:55 PM 37.9 °F 32.1 °F 26.1 °F 62% 29.85 in 10.0 mi NNW 8.1 mph - N/A   Overcast
4:15 PM 37.9 °F 30.5 °F 25.3 °F 60% 29.85 in 10.0 mi NNW 11.5 mph - N/A   Overcast
4:35 PM 37.6 °F 30.5 °F 25.0 °F 60% 29.85 in 10.0 mi NNW 10.4 mph - N/A   Overcast
4:54 PM 38.3 °F 30.9 °F 26.4 °F 62% 29.86 in 10.0 mi NW 11.5 mph 17.3 mph N/A   Overcast
5:15 PM 37.8 °F 31.3 °F 25.9 °F 62% 29.86 in 10.0 mi NW 9.2 mph - N/A   Overcast
5:35 PM 37.4 °F 31.4 °F 25.9 °F 63% 29.86 in 10.0 mi NW 8.1 mph 16.1 mph N/A   Overcast
5:55 PM 37.0 °F 31.6 °F 26.6 °F 66% 29.87 in 10.0 mi NW 6.9 mph - N/A   Overcast
6:15 PM 37.0 °F 31.0 °F 26.6 °F 66% 29.87 in 10.0 mi NW 8.1 mph - N/A   Overcast
6:35 PM 37.6 °F 32.3 °F 25.0 °F 60% 29.87 in 10.0 mi NW 6.9 mph - N/A   Overcast
6:55 PM 37.4 °F 31.4 °F 24.8 °F 60% 29.88 in 10.0 mi NNW 8.1 mph - N/A   Overcast
7:15 PM 37.4 °F 31.4 °F 25.0 °F 61% 29.89 in 10.0 mi NW 8.1 mph - N/A   Overcast
7:35 PM 36.9 °F 29.6 °F 25.7 °F 64% 29.89 in 10.0 mi NW 10.4 mph - N/A   Overcast
7:55 PM 36.9 °F 29.1 °F 26.1 °F 65% 29.90 in 10.0 mi NW 11.5 mph 18.4 mph N/A   Overcast
8:15 PM 36.5 °F 28.2 °F 27.0 °F 68% 29.90 in 10.0 mi NW 12.7 mph 17.3 mph N/A   Overcast
8:34 PM 36.0 °F 28.0 °F 27.9 °F 72% 29.91 in 10.0 mi NW 11.5 mph 19.6 mph N/A   Overcast
8:55 PM 36.5 °F 28.2 °F 27.5 °F 70% 29.91 in 10.0 mi NW 12.7 mph 19.6 mph N/A   Overcast
9:15 PM 36.1 °F 28.2 °F 27.9 °F 72% 29.92 in 10.0 mi NW 11.5 mph 19.6 mph N/A   Overcast
9:35 PM 35.8 °F 27.8 °F 28.0 °F 73% 29.93 in 10.0 mi NW 11.5 mph 21.9 mph N/A   Overcast
9:55 PM 35.4 °F 28.4 °F 28.4 °F 76% 29.93 in 10.0 mi NW 9.2 mph - N/A   Overcast
10:15 PM 35.1 °F 27.9 °F 29.3 °F 80% 29.94 in 10.0 mi NW 9.2 mph - N/A   Overcast
10:35 PM 35.2 °F 29.5 °F 29.8 °F 81% 29.94 in 10.0 mi NW 6.9 mph - N/A   Overcast
10:55 PM 35.1 °F 29.3 °F 30.0 °F 82% 29.94 in 10.0 mi NW 6.9 mph - N/A   Overcast
11:15 PM 35.2 °F 30.3 °F 29.7 °F 80% 29.95 in 10.0 mi WNW 5.8 mph - N/A   Overcast
11:35 PM 35.6 °F 29.2 °F 29.1 °F 77% 29.95 in 10.0 mi NW 8.1 mph - N/A   Overcast
11:55 PM 35.8 °F 29.4 °F 28.4 °F 75% 29.95 in 10.0 mi NW 8.1 mph - N/A   Overcast